Weather History for Augusta, ME

Change the Weather History Date:

Sunday, March 24, 2013

  Actual Average Record
Temperature  
Mean Temperature 37 °F 35 °F  
Max Temperature 43 °F 43 °F 52 °F (2012)
Min Temperature 28 °F 26 °F 5 °F (2014)
Degree Days  
Heating Degree Days 28 30  
Month to date heating degree days 825  
Since 1 July heating degree days 6168  
Cooling Degree Days 0 0  
Month to date cooling degree days 0  
Year to date cooling degree days 0  
Moisture  
Dew Point 22 °F    
Average Humidity 56    
Maximum Humidity 75    
Minimum Humidity 43    
Precipitation  
Precipitation 0.00 in 0.12 in 0.09 in (1999)
Month to date precipitation 2.54  
Year to date precipitation 7.58  
Sea Level Pressure  
Sea Level Pressure 29.73 in    
Wind  
Wind Speed 11 mph (NW)    
Max Wind Speed 15 mph    
Max Gust Speed 26 mph    
Visibility 10 miles    
Events      
T = Trace of Precipitation, MM = Missing Value Source: NWS Daily Summary

Daily Weather History Graph

Daily Weather History Graph

Search for Another Location

Airport:

Trip Planner

Search our weather history database for the weather conditions in past years. The results will help you decide how hot, cold, wet, or windy it might be!

Date:

Astronomy

Mar. 24, 2013 Rise Set
Actual Time 6:34 AM EDT 6:56 PM EDT
Civil Twilight 6:05 AM EDT 7:25 PM EDT
Nautical Twilight 5:31 AM EDT 8:00 PM EDT
Astronomical Twilight 4:56 AM EDT 8:35 PM EDT
Moon 4:17 PM EDT (3/24) 4:48 AM EDT (3/24)
Length of Visible Light 13h 20m
Length of Day
12h 22m
Waxing Gibbous, 91% of the Moon is Illuminated
Mar 24
Waxing Gibbous
Mar 27
Full
Apr 3
Last Quarter
Apr 10
New
Apr 18
First Quarter

Hourly Weather History & Observations

Time (EDT) Temp. Windchill Dew Point Humidity Pressure Visibility Wind Dir Wind Speed Gust Speed Precip Events Conditions
12:53 AM 34.0 °F 26.0 °F 21.0 °F 59% 29.63 in 10.0 mi WNW 10.4 mph 20.7 mph N/A   Clear
1:53 AM 33.1 °F 23.4 °F 21.0 °F 61% 29.64 in 10.0 mi NW 13.8 mph - N/A   Clear
2:53 AM 33.1 °F 24.4 °F 21.0 °F 61% 29.65 in 10.0 mi NW 11.5 mph 21.9 mph N/A   Clear
3:53 AM 33.1 °F 24.9 °F 21.0 °F 61% 29.67 in 10.0 mi WNW 10.4 mph - N/A   Overcast
4:53 AM 33.1 °F 26.9 °F 21.9 °F 64% 29.68 in 10.0 mi NW 6.9 mph - N/A   Overcast
5:53 AM 32.0 °F 24.8 °F 21.0 °F 64% 29.68 in 10.0 mi NW 8.1 mph - N/A   Partly Cloudy
6:53 AM 32.0 °F 22.5 °F 21.9 °F 66% 29.68 in 10.0 mi NW 12.7 mph - N/A   Clear
7:53 AM 34.0 °F 25.0 °F 23.0 °F 64% 29.73 in 10.0 mi NW 12.7 mph 18.4 mph N/A   Scattered Clouds
8:53 AM 35.1 °F 28.6 °F 23.0 °F 61% 29.75 in 10.0 mi WNW 8.1 mph 17.3 mph N/A   Overcast
9:53 AM 37.0 °F 28.1 °F 23.0 °F 57% 29.77 in 10.0 mi NW 15.0 mph 21.9 mph N/A   Overcast
10:53 AM 39.9 °F 32.9 °F 21.9 °F 49% 29.75 in 10.0 mi WNW 11.5 mph 18.4 mph N/A   Overcast
11:53 AM 37.9 °F 29.2 °F 23.0 °F 55% 29.75 in 10.0 mi NNW 15.0 mph 26.5 mph N/A   Overcast
12:53 PM 41.0 °F 34.3 °F 21.9 °F 47% 29.74 in 10.0 mi NNW 11.5 mph 21.9 mph N/A   Overcast
1:53 PM 41.0 °F 35.2 °F 21.9 °F 47% 29.73 in 10.0 mi NNW 9.2 mph - N/A   Overcast
2:53 PM 41.0 °F 33.5 °F 21.0 °F 45% 29.74 in 10.0 mi North 13.8 mph - N/A   Overcast
3:53 PM 42.1 °F 34.5 °F 21.0 °F 43% 29.75 in 10.0 mi North 15.0 mph - N/A   Overcast
4:53 PM 41.0 °F 33.9 °F 21.0 °F 45% 29.74 in 10.0 mi North 12.7 mph 23.0 mph N/A   Overcast
5:53 PM 39.9 °F 32.5 °F 21.9 °F 49% 29.75 in 10.0 mi NNW 12.7 mph - N/A   Overcast
6:53 PM 39.0 °F 33.4 °F 21.0 °F 49% 29.76 in 10.0 mi NNW 8.1 mph - N/A   Scattered Clouds
7:53 PM 37.0 °F 33.3 °F 21.0 °F 52% 29.77 in 10.0 mi NW 4.6 mph - N/A   Clear
8:53 PM 36.0 °F 31.1 °F 21.0 °F 55% 29.78 in 10.0 mi NW 5.8 mph - N/A   Clear
9:53 PM 33.1 °F 28.7 °F 21.0 °F 61% 29.77 in 10.0 mi NW 4.6 mph - N/A   Clear
10:53 PM 33.1 °F 28.7 °F 21.9 °F 64% 29.78 in 10.0 mi WNW 4.6 mph - N/A   Clear
11:53 PM 28.9 °F 22.8 °F 21.9 °F 75% 29.76 in 10.0 mi NNW 5.8 mph - N/A   Clear